Location: Lake Arresoe
(56.0000°N, 12.5000°E)
Time: 06:44:03
(UTC+02:00)

Cosmos 1674 - Pass Details

Date: 01 August 2021
Orbit: 491 x 516 km, 82.5° (Epoch: 19 September)

Event Time Altitude Azimuth Distance (km) Brightness Sun altitude
Rises 03:47:29 0° 344° (NNW) 2,655 6.9 -9.5°
Reaches altitude 10° 03:49:40 10° 339° (NNW) 1,762 5.9 -9.3°
Maximum altitude 03:53:25 49° 264° (W) 676 3.0 -9.0°
Drops below altitude 10° 03:57:06 10° 189° (S) 1,742 4.8 -8.6°
Enters shadow 03:57:28 - 188° (S) 1,889 5.0 -8.6°
